OBJECT AG, 59128

Orbit data source: Space-Track

You're viewing an Uncataloged Satellite

Recently launched and/or uncataloged satellites may have evolving metadata. Metadata may include but not limited to: Owner, Maufacturer, Bus, Motor, and Mission.

OBJECT AG, 59128 is a satellite in SSO that was launched on Mon, 04 Mar 2024 UTC via an FALCON 9 launch vehicle from the Air Force Western Test Range (AFWTR). Unknown objects in Earth's orbit typically refer to objects detected orbiting the Earth but have not yet been identified or cataloged. These objects could be anything from previously untracked satellites, spent rocket stages, debris from satellite collisions, or even natural meteoroids temporarily captured by Earth's gravity.

Loading next visibility...
Identifier
59128, 2024-043AG
Orbit
SSO
Country
Flag of TBDTBD
Related business
None
Manufacturer
OrbAstro
Mission
Operational Commercial Sigint
Bus & Motor
CUBESAT 6U, Unknown motor
Mass
~10 kg wet, ~10 kg dry
Launch date (UTC)
2024-03-04 (2 years ago)
Launch vehicle
FALCON 9
Launch site
Air Force Western Test Range (AFWTR)
Object type
Unknown
Shape & HBR
Box + 2 Pan, 1.5 m
Radar Cross Section
0.969 m², Large (>1 m²)

Expand to show TLE details & history
Last TLE update: 23 hours ago

TLE from 23 hours ago
0 OBJECT AG
1 59128U 24043AG  25258.93982021  .00007253  00000-0  27335-3 0  9994
2 59128  97.5286  28.4101 0011926 126.9708 233.2625 15.27321974 85188
Epoch: 2025-09-15T22:33Z
TLE epoch observation values (Epoch: 2025-09-15T22:33:20.466Z)
Latitude
0.00005°
Longitude
54.93754°
Altitude
491.821 km
Speed
7.616 km/s
True Right ascension
01h 53m 38s
True Declination
0° 00' 00"
Sunlit
Object was in full shadow at epoch
Visualization orbit readout
Latitude
Unknown
Longitude
Unknown
Altitude
Unknown
Speed
Unknown
Apparent Right ascension
Unknown
Apparent Declination
Unknown
Sunlit
N/A
Visualization observer readout
Local Sidereal Time
14:45:52
Azimuth
Unknown
Elevation
Unknown
Doppler factor
Unknown
Orbital elements
Apogee altitude
488.963 km
Perigee altitude
472.603 km
Semi-major axis
6,858.92 km
Eccentricity
0.00119
Inclination
97.5286°
RAAN
28.4101°
Arg. of periapsis
126.9708°
True anomaly
233.15308°
Mean anomaly
233.2625°
Eccentric anomaly
233.20778°
Mean motion
3.82085 °/min
Orbital period
94.22 mins
BSTAR
0.00027335
Loading maneuver chart data...
Computing Atmospheric mass density...
Loading historical data...
Loading historical data...
Loading historical data...
Loading historical data...
Loading historical data...
Loading historical data...
Loading historical data...

Documentation

Showing up to 5 results
|